CPA216 EGCC-VHHH

Flight info

Callsign CPA216
Flight time N/A
Altitude 35000
Route DESIG L603 LAMSO DCT TENLI DCT KUMER DCT OMELO DCT ODLIV DCT OMIFU DCT SAGAN DCT ETNOG DCT ROMAG DCT UDROS DCT CRM/N0489F370 UM11 REBLO M11 MATAL T916 BALUN/K0900F370 T916 KUNAS N193 LANOL/K0904F390 N193 SR L163 TISIB L141 KAMUD/K0898S1190 W186 SADAN Y1 OMBON W245 OVRAL B330 IDBOR/K0911S1250 B330 KWE W181 DUDIT A599 POU R473 SIERA
Aircraft A359/H-SDE2E3GHIJ3J4J5LM1ORWXY/LB1D1

Departure

Time N/A
Airport Manchester Airport (EGCC)

Arrival

Time 2026-05-04 08:35
Airport Hong Kong International Airport (VHHH)
Time Latitude Longitude Altitude Speed Heading
2026-05-04 08:02 22.97460 113.19356 41050 ft 528 kts 140°
2026-05-04 08:02 22.94687 113.21915 41045 ft 519 kts 151°
2026-05-04 08:02 22.91611 113.23855 40576 ft 506 kts 162°
2026-05-04 08:03 22.88316 113.25117 39797 ft 499 kts 174°
2026-05-04 08:03 22.84918 113.25717 39094 ft 494 kts 181°
2026-05-04 08:03 22.81507 113.26426 38356 ft 504 kts 173°
2026-05-04 08:03 22.78116 113.27430 37586 ft 507 kts 172°
2026-05-04 08:04 22.74720 113.28505 36847 ft 509 kts 171°
2026-05-04 08:04 22.71329 113.29630 36128 ft 510 kts 171°
2026-05-04 08:04 22.67944 113.30786 35389 ft 510 kts 170°
2026-05-04 08:04 22.64564 113.31957 34644 ft 511 kts 170°
2026-05-04 08:05 22.61180 113.33139 33881 ft 511 kts 170°
2026-05-04 08:05 22.57806 113.34319 32961 ft 511 kts 169°
2026-05-04 08:05 22.54409 113.35498 32058 ft 513 kts 169°
2026-05-04 08:05 22.51006 113.36675 31162 ft 514 kts 169°
2026-05-04 08:06 22.47597 113.37852 30303 ft 514 kts 169°
2026-05-04 08:06 22.44184 113.39029 29354 ft 514 kts 168°
2026-05-04 08:06 22.40784 113.40203 28456 ft 514 kts 168°
2026-05-04 08:06 22.37387 113.41375 27733 ft 510 kts 168°
2026-05-04 08:08 22.14543 113.49425 23116 ft 482 kts 165°
2026-05-04 08:08 22.11400 113.50600 22624 ft 472 kts 166°
2026-05-04 08:10 21.89389 113.59515 20100 ft 396 kts 162°
2026-05-04 08:11 21.86874 113.60684 19645 ft 392 kts 162°
2026-05-04 08:11 21.81906 113.62972 18732 ft 384 kts 163°
2026-05-04 08:11 21.79459 113.64093 18297 ft 381 kts 163°
2026-05-04 08:12 21.77025 113.65207 17795 ft 378 kts 163°
2026-05-04 08:12 21.74623 113.66306 17345 ft 373 kts 163°
2026-05-04 08:12 21.72254 113.67390 16914 ft 368 kts 163°
2026-05-04 08:12 21.69909 113.68461 16486 ft 364 kts 163°
2026-05-04 08:13 21.67580 113.69523 16045 ft 362 kts 163°
2026-05-04 08:13 21.65279 113.70586 15628 ft 360 kts 162°
2026-05-04 08:13 21.63145 113.72027 15188 ft 368 kts 143°
2026-05-04 08:13 21.61595 113.74234 14748 ft 376 kts 119°
2026-05-04 08:14 21.60928 113.76944 14296 ft 380 kts 95°
2026-05-04 08:14 21.61260 113.79740 13873 ft 378 kts 71°
2026-05-04 08:14 21.62542 113.82165 13391 ft 372 kts 47°
2026-05-04 08:16 21.77798 113.93953 12607 ft 431 kts 69°
2026-05-04 08:16 21.78843 113.96975 12351 ft 430 kts 70°
2026-05-04 08:16 21.79873 113.99980 12117 ft 428 kts 70°
2026-05-04 08:17 21.80909 114.02978 11867 ft 426 kts 69°
2026-05-04 08:17 21.81941 114.05950 11635 ft 423 kts 69°
2026-05-04 08:17 21.82972 114.08908 11393 ft 420 kts 69°
2026-05-04 08:17 21.83992 114.11837 11155 ft 416 kts 69°
2026-05-04 08:19 21.90441 114.30353 7817 ft 315 kts 69°
2026-05-04 08:19 21.91190 114.32506 7609 ft 303 kts 69°
2026-05-04 08:20 21.91932 114.34643 7454 ft 305 kts 69°
2026-05-04 08:20 21.92671 114.36771 7291 ft 302 kts 69°
2026-05-04 08:20 21.93404 114.38881 7165 ft 300 kts 69°
2026-05-04 08:20 21.94175 114.40962 7016 ft 299 kts 63°
2026-05-04 08:21 21.95329 114.42814 6878 ft 298 kts 44°
2026-05-04 08:21 21.97004 114.44066 6763 ft 290 kts 18°
2026-05-04 08:21 21.98945 114.44362 6660 ft 279 kts 349°
2026-05-04 08:21 22.00829 114.43916 6568 ft 277 kts 342°
2026-05-04 08:22 22.02686 114.43345 6474 ft 277 kts 341°
2026-05-04 08:22 22.04533 114.42777 6376 ft 276 kts 340°
2026-05-04 08:24 22.17363 114.38861 5714 ft 274 kts 341°
2026-05-04 08:24 22.19200 114.38305 5614 ft 274 kts 342°
2026-05-04 08:24 22.21038 114.37752 5523 ft 275 kts 342°
2026-05-04 08:24 22.22876 114.37194 5416 ft 275 kts 342°
2026-05-04 08:25 22.24710 114.36600 5296 ft 274 kts 336°
2026-05-04 08:25 22.26173 114.35360 5210 ft 268 kts 303°
2026-05-04 08:25 22.26846 114.33517 5124 ft 265 kts 282°
2026-05-04 08:25 22.27366 114.31610 5017 ft 267 kts 294°
2026-05-04 08:26 22.28522 114.30054 4938 ft 270 kts 321°
2026-05-04 08:27 22.38923 114.26039 4603 ft 204 kts 301°
2026-05-04 08:28 22.39658 114.24732 4607 ft 205 kts 299°
2026-05-04 08:28 22.40381 114.23407 4603 ft 204 kts 299°
2026-05-04 08:28 22.41102 114.22083 4605 ft 205 kts 299°
2026-05-04 08:28 22.41812 114.20753 4599 ft 203 kts 297°
2026-05-04 08:29 22.42118 114.19298 4603 ft 200 kts 262°
2026-05-04 08:29 22.41758 114.17867 4601 ft 198 kts 250°
2026-05-04 08:29 22.41281 114.16464 4600 ft 200 kts 250°
2026-05-04 08:31 22.38207 114.07086 3577 ft 200 kts 250°
2026-05-04 08:33 22.35229 113.97794 1292 ft 155 kts 249°
2026-05-04 08:33 22.34891 113.96743 1093 ft 148 kts 250°
2026-05-04 08:35 22.32760 113.90092 39 ft 49 kts 251°
2026-05-04 08:35 22.32654 113.89764 38 ft 44 kts 248°
2026-05-04 08:35 22.32505 113.89552 38 ft 21 kts 223°
2026-05-04 08:35 22.32429 113.89520 38 ft 10 kts 158°
2026-05-04 08:37 22.32584 113.90114 38 ft 21 kts 70°
2026-05-04 08:37 22.32634 113.90268 38 ft 23 kts 71°
2026-05-04 08:37 22.32687 113.90436 38 ft 25 kts 71°
2026-05-04 08:38 22.32745 113.90616 38 ft 26 kts 71°
2026-05-04 08:38 22.32806 113.90806 39 ft 28 kts 71°
2026-05-04 08:38 22.32871 113.91007 39 ft 29 kts 70°
2026-05-04 08:40 22.33181 113.92126 39 ft 11 kts 154°
2026-05-04 08:40 22.33100 113.92157 39 ft 14 kts 161°
2026-05-04 08:40 22.33001 113.92194 39 ft 16 kts 161°
2026-05-04 08:41 22.32885 113.92238 39 ft 19 kts 161°
2026-05-04 08:41 22.32751 113.92286 39 ft 21 kts 161°
2026-05-04 08:41 22.32603 113.92340 38 ft 23 kts 160°
2026-05-04 08:41 22.32443 113.92402 38 ft 25 kts 161°
2026-05-04 08:42 22.32284 113.92461 38 ft 18 kts 161°
2026-05-04 08:42 22.32192 113.92496 38 ft 11 kts 161°
2026-05-04 08:42 22.32162 113.92540 38 ft 8 kts 101°
2026-05-04 08:42 22.32174 113.92600 38 ft 10 kts 71°
2026-05-04 08:43 22.32186 113.92676 38 ft 10 kts 111°
2026-05-04 08:43 22.32123 113.92712 39 ft 11 kts 161°
2026-05-04 08:43 22.32048 113.92740 40 ft 13 kts 160°
2026-05-04 08:43 22.31957 113.92776 40 ft 15 kts 160°
2026-05-04 08:44 22.31840 113.92822 38 ft 19 kts 158°
2026-05-04 08:44 22.31713 113.92877 38 ft 21 kts 160°
2026-05-04 08:46 22.31450 113.93006 38 ft 0 kts 161°